Trenton, NJ

3:55 PM EST on December 11, 2019 (GMT -0500)
Trenton Mercer

Weather History for KTTN - October, 2019

Change the Weather History Date:

Friday, October 4, 2019

  Actual Average Record
Temperature  
Mean Temperature 56 °F 59 °F  
Max Temperature 66 °F 69 °F 86 °F (2013)
Min Temperature 44 °F 48 °F 35 °F (1974)
Degree Days  
Heating Degree Days 10 7  
Month to date heating degree days 12 26  
Since 1 July heating degree days 30 91  
Cooling Degree Days 0 1  
Month to date cooling degree days 22 4  
Year to date cooling degree days 1159 959  
Growing Degree Days 6 (Base 50)    
Moisture  
Dew Point 51 °F    
Average Humidity 80    
Maximum Humidity 100    
Minimum Humidity 46    
Precipitation  
Precipitation 0.01 in 0.15 in 4.30 in (1877)
Month to date precipitation 0.38 0.61  
Year to date precipitation 39.04 35.86  
Sea Level Pressure  
Sea Level Pressure 30.04 in    
Wind  
Wind Speed 7 mph ()    
Max Wind Speed 24 mph    
Max Gust Speed 32 mph    
Visibility 7.6 miles    
Events      
T = Trace of Precipitation, MM = Missing Value Source: Averaged Metar Reports

Daily Weather History Graph

Daily Weather History Graph

Search for Another Location

Airport or City:

Astronomy

Oct. 04, 2019 Rise Set
Actual Time 6:58 AM EDT 6:36 PM EDT
Civil Twilight 6:31 AM EDT 7:04 PM EDT
Nautical Twilight 5:59 AM EDT 7:35 PM EDT
Astronomical Twilight 5:27 AM EDT 8:07 PM EDT
Moon 1:28 PM EDT (10/4) 11:03 PM EDT (10/4)
Length of Visible Light 12h 32m
Length of Day
11h 38m
Waxing Crescent, 39% of the Moon is Illuminated
Oct 4
Waxing Crescent
Oct 5
First Quarter
Oct 13
Full
Oct 21
Last Quarter
Oct 27
New

Hourly Weather History & Observations

Time (EDT) Temp. Windchill Dew Point Humidity Pressure Visibility Wind Dir Wind Speed Gust Speed Precip Events Conditions
12:02 AM 59.0 °F - 59.0 °F 100% 29.96 in 1.5 mi NNW 6.9 mph - 0.01 in   Overcast
12:16 AM 59.0 °F - 59.0 °F 100% 29.96 in 1.8 mi NNW 6.9 mph - 0.01 in   Overcast
12:34 AM 59.0 °F - 57.9 °F 96% 29.95 in 2.0 mi NNW 6.9 mph - 0.01 in   Overcast
12:53 AM 59.0 °F - 57.9 °F 96% 29.94 in 2.5 mi NNW 5.8 mph - 0.01 in   Overcast
1:01 AM 59.0 °F - 59.0 °F 100% 29.95 in 3.0 mi NNW 3.5 mph - N/A   Overcast
1:08 AM 59.0 °F - 59.0 °F 100% 29.94 in 2.5 mi NW 3.5 mph - N/A   Overcast
1:22 AM 59.0 °F - 57.9 °F 96% 29.94 in 3.0 mi NNW 5.8 mph - N/A   Overcast
1:53 AM 59.0 °F - 57.9 °F 96% 29.93 in 7.0 mi NW 4.6 mph - N/A   Overcast
2:31 AM 59.0 °F - 57.9 °F 96% 29.93 in 6.0 mi WNW 3.5 mph - N/A   Overcast
2:48 AM 59.0 °F - 59.0 °F 100% 29.93 in 2.5 mi NNW 3.5 mph - N/A   Overcast
2:53 AM 59.0 °F - 59.0 °F 100% 29.91 in 2.5 mi NW 4.6 mph - N/A   Overcast
3:53 AM 57.9 °F - 57.9 °F 100% 29.91 in 5.0 mi WNW 5.8 mph - N/A   Overcast
4:23 AM 57.9 °F - 57.9 °F 100% 29.94 in 10.0 mi WNW 4.6 mph - N/A   Overcast
4:40 AM 57.9 °F - 57.9 °F 100% 29.94 in 8.0 mi NW 6.9 mph - N/A   Overcast
4:53 AM 57.9 °F - 57.0 °F 97% 29.93 in 10.0 mi WNW 5.8 mph - N/A   Overcast
5:25 AM 59.0 °F - 57.0 °F 93% 29.95 in 10.0 mi WNW 9.2 mph - N/A   Overcast
5:53 AM 59.0 °F - 57.0 °F 93% 29.94 in 10.0 mi WNW 9.2 mph - N/A   Scattered Clouds
6:53 AM 57.9 °F - 57.0 °F 97% 29.97 in 10.0 mi WNW 5.8 mph - N/A   Clear
7:53 AM 59.0 °F - 57.0 °F 93% 29.98 in 10.0 mi West 4.6 mph - N/A   Clear
8:53 AM 62.1 °F - 55.0 °F 78% 30.01 in 10.0 mi NNW 9.2 mph - N/A   Clear
9:53 AM 63.0 °F - 52.0 °F 67% 30.03 in 10.0 mi NW 13.8 mph - N/A   Clear
10:53 AM 64.9 °F - 51.1 °F 61% 30.04 in 10.0 mi NNW 15.0 mph 28.8 mph N/A   Mostly Cloudy
11:53 AM 66.0 °F - 48.9 °F 54% 30.06 in 10.0 mi NNW 15.0 mph 28.8 mph N/A   Mostly Cloudy
12:53 PM 64.9 °F - 46.0 °F 50% 30.08 in 10.0 mi NNW 17.3 mph 25.3 mph N/A   Scattered Clouds
1:53 PM 64.0 °F - 44.1 °F 48% 30.10 in 10.0 mi NNW 16.1 mph 26.5 mph N/A   Scattered Clouds
2:53 PM 63.0 °F - 42.1 °F 46% 30.12 in 10.0 mi North 21.9 mph 31.1 mph N/A   Clear
3:53 PM 61.0 °F - 41.0 °F 48% 30.12 in 10.0 mi NNW 18.4 mph 24.2 mph N/A   Scattered Clouds
4:53 PM 61.0 °F - 39.9 °F 46% 30.15 in 10.0 mi North 17.3 mph 27.6 mph N/A   Scattered Clouds
5:53 PM 57.0 °F - 39.0 °F 51% 30.18 in 10.0 mi North 17.3 mph 25.3 mph N/A   Clear
6:53 PM 53.1 °F - 39.0 °F 59% 30.21 in 10.0 mi NNW 12.7 mph - N/A   Clear
7:53 PM 51.1 °F - 39.0 °F 63% 30.24 in 10.0 mi NNW 5.8 mph - N/A   Clear
8:53 PM 50.0 °F - 39.0 °F 66% 30.26 in 10.0 mi North 6.9 mph - N/A   Clear
9:53 PM 48.9 °F - 39.0 °F 69% 30.28 in 10.0 mi North 9.2 mph - N/A   Clear
10:53 PM 46.9 °F - 37.9 °F 71% 30.30 in 10.0 mi NNW 6.9 mph - N/A   Clear
11:53 PM 46.0 °F 41.4 °F 37.9 °F 73% 30.32 in 10.0 mi North 9.2 mph - N/A   Clear